CAPE
26 1 0 0 0 0 0 0 0 0 0 1 48 0 1 4 0 0 0 0 0 0 0 0 0 0 0 0 0 0 0 0 26 57 28 2 0 0 0 0 0 0 0 0
6 3 0 0 0 0 7 3 2 0 0 3 45 76 64 5 23 2 0 0 0 0 0 0 0 0 0 0 0 0 0 4 19 2 0 0 0 0 0 0 0 0 0 0
3 13 0 0 0 14 1 2 1 0 0 59 48 43 13 23 110 12 4 5 0 0 0 0 0 0 0 0 0 0 0 0 0 0 0 0 0 0 0 0 0 0 0 0
1 0 0 0 0 1 1 0 0 0 0 0 0 16 0 0 2 2 0 2 0 0 0 0 0 0 0 0 0 0 0 0 0 0 0 0 0 0 0 0 0 0 0 0
0 0 0 0 0 0 2 0 0 0 0 0 0 11 0 1 0 13 10 0 0 0 0 0 0 0 0 0 0 0 0 0 0 0 0 0 0 0 0 0 0 0 0 1
0 0 0 0 0 0 16 0 0 0 0 0 0 0 0 0 0 0 0 0 0 0 0 0 0 0 0 0 0 0 0 0 0 0 0 0 0 0 0 0 0 0 0 1
0 0 0 0 0 0 8 0 0 0 0 0 1 0 0 0 0 0 0 0 0 0 0 0 0 0 0 0 0 0 0 0 0 0 0 0 0 0 2 1 2 2 0 1
0 0 0 0 0 0 0 0 0 0 0 0 0 0 0 0 0 0 0 0 0 0 0 0 0 0 0 0 0 0 0 0 0 0 0 0 0 2 2 1 2 0 1 1
0 0 0 0 0 0 0 0 0 0 0 0 0 0 0 0 0 0 0 0 0 0 0 0 0 0 0 0 0 0 0 0 0 0 0 0 2 1 1 2 1 2 1 0
0 0 0 0 7 0 0 0 0 0 0 0 0 0 0 0 0 0 0 0 0 0 0 0 0 0 0 0 0 0 0 0 0 0 0 2 0 0 0 0 0 1 0 0
0 0 0 0 0 0 0 0 0 0 0 0 0 0 0 0 0 0 0 0 0 0 0 0 0 0 0 0 0 0 0 1 1 1 2 1 0 0 0 0 0 0 0 0
0 0 0 0 0 0 0 0 0 0 0 0 0 0 0 0 0 0 0 0 0 0 0 13 25 1 0 0 0 0 1 2 2 1 1 1 0 0 1 0 0 0 0 0
0 0 0 0 0 0 0 0 0 0 0 0 0 0 0 0 0 0 0 0 0 0 0 0 0 2 0 0 0 0 0 0 0 0 0 0 1 0 1 2 0 0 0 0
0 0 0 0 0 0 0 0 0 0 0 0 0 0 0 0 0 0 0 0 0 0 0 0 0 0 0 0 0 0 0 0 0 0 0 1 0 1 0 1 3 2 0 0
0 0 0 0 0 0 0 0 0 0 0 0 0 0 0 0 0 0 0 0 0 0 0 0 0 0 0 0 0 0 0 0 0 0 0 0 0 0 0 0 0 0 0 0
0 0 0 0 0 0 0 0 0 0 0 0 0 0 0 0 0 0 0 0 0 0 0 0 0 0 1 0 0 0 0 0 0 0 0 0 0 0 0 0 0 0 0 0
0 0 0 0 0 0 0 0 0 0 0 0 0 0 0 0 0 0 0 0 0 0 0 0 0 0 0 0 0 2 0 0 0 0 0 0 0 0 0 0 0 0 0 0
0 0 0 0 0 0 0 0 0 0 0 0 0 0 0 0 0 0 0 0 0 0 0 0 0 0 0 0 1 0 0 1 0 0 0 0 0 0 0 0 0 0 0 0
0 0 0 0 0 0 0 0 0 0 0 0 0 0 0 0 0 0 0 0 0 0 0 0 0 1 1 1 0 0 0 0 0 0 0 0 0 0 0 0 0 0 0 0
0 0 0 0 0 0 0 0 0 0 0 0 0 0 0 0 0 0 1 1 1 0 0 0 1 1 0 0 0 0 0 0 0 0 0 0 1 1 0 0 0 0 0 0
0 0 0 0 0 0 0 0 0 0 0 0 0 0 0 1 0 0 0 0 1 1 0 0 0 0 0 0 0 0 0 0 0 0 0 0 0 0 0 0 0 0 0 0
0 0 0 0 0 0 0 0 0 0 0 0 0 1 0 2 0 0 0 0 1 0 0 0 0 0 0 0 0 0 0 0 0 0 0 0 0 0 0 0 0 0 0 0
1 0 0 1 2 1 1 2 2 1 1 0 2 0 1 0 0 0 0 0 0 0 0 0 0 0 0 0 0 0 0 0 0 0 0 0 0 0 0 0 0 0 0 0
1 1 1 1 1 1 0 1 1 0 0 0 2 0 0 0 0 0 0 0 0 0 0 0 0 0 0 0 0 0 0 0 0 0 0 0 0 0 0 0 0 0 1 1
1 0 1 1 0 1 1 2 2 2 1 1 1 0 0 0 0 0 0 0 0 0 0 0 0 0 0 0 0 0 0 0 0 0 0 0 0 0 0 0 0 0 0 1
0 2 2 4 3 0 0 0 0 0 0 1 1 0 0 0 0 0 0 0 0 1 0 0 1 0 0 0 0 0 0 0 0 0 0 0 0 0 0 0 0 0 0 0
1 1 1 0 0 1 0 0 0 0 0 0 0 0 0 0 0 0 0 0 0 0 0 0 0 0 0 0 0 0 0 0 0 0 0 0 0 0 0 0 0 0 0 0
CIN
-1 -2 0 0 0 0 0 0 0 0 0 -11 -18 0 -12 -29 0 0 0 0 0 0 0 0 0 0 0 0 0 0 0 -30 -60 -42 -60 -16 0 0 0 0 0 0 0 0
-4 -8 0 -1 0 0 0 -1 0 0 0 -38 -17 -2 -7 -34 -27 -26 -4 0 0 0 0 0 0 0 0 0 0 0 0 -101 -76 -124 0 0 0 0 0 0 0 0 0 0
-4 -4 -12 0 0 -4 -2 -3 -5 0 0 -21 -4 -4 -33 -25 -8 -16 -11 -19 0 0 0 0 0 0 0 0 0 0 0 0 0 0 0 0 0 0 0 0 0 0 0 0
0 0 0 0 0 -3 -19 -1 0 0 0 0 -3 -5 0 -1 -31 -30 0 -59 0 0 0 0 0 0 0 0 0 0 0 0 0 0 0 0 0 0 0 0 0 0 0 0
0 0 0 0 0 0 -37 0 0 0 0 0 0 -9 0 -52 0 -35 -41 -2 0 0 0 0 0 0 0 0 0 0 0 0 0 0 0 0 0 0 0 0 0 0 0 0
0 0 0 0 0 0 -21 0 0 0 0 0 0 0 0 0 0 0 0 0 0 0 0 0 0 0 0 0 0 0 0 0 0 0 0 0 0 0 0 0 0 0 0 0
0 0 0 0 0 0 -7 0 0 0 0 0 -44 0 0 0 0 0 0 0 0 0 0 0 0 0 0 0 0 0 0 0 0 0 0 0 0 0 0 0 0 0 0 0
0 0 0 0 0 0 0 0 0 0 0 0 0 0 0 0 0 0 0 0 0 0 0 0 0 0 0 0 0 0 0 0 0 0 0 0 0 0 0 0 0 0 0 0
0 0 0 0 0 0 0 0 0 0 0 0 0 0 0 0 0 0 0 0 0 0 0 0 0 0 0 0 0 0 0 0 0 0 0 0 0 0 0 0 0 0 0 0
0 0 0 0 -16 0 0 0 0 0 0 0 0 0 0 0 0 0 0 0 0 0 0 0 0 0 0 0 0 0 0 0 0 0 0 0 0 0 0 0 0 0 0 0
0 0 0 0 0 0 0 0 0 0 0 0 0 0 0 0 0 0 0 0 0 0 0 0 0 0 0 0 0 0 0 0 0 0 0 0 0 0 0 0 0 0 0 0
0 0 0 0 0 0 0 0 0 0 0 0 0 0 0 0 0 0 0 0 0 0 0 -1 -13 -16 0 0 0 0 0 0 0 0 0 0 0 0 0 0 0 0 0 0
0 0 0 0 0 0 0 0 0 0 0 0 0 0 0 0 0 0 0 0 0 0 0 0 0 -60 0 0 0 0 0 0 0 0 0 0 0 0 0 0 0 0 0 0
0 0 0 0 0 0 0 0 0 0 0 0 0 0 0 0 0 0 0 0 0 0 0 0 0 0 0 0 0 0 0 0 0 0 0 0 0 0 0 0 0 0 0 0
0 0 0 0 0 0 0 0 0 0 0 0 0 0 0 0 0 0 0 0 0 0 0 0 0 0 0 0 0 0 0 0 0 0 0 0 0 0 0 0 0 0 0 -1
0 0 0 0 0 0 0 0 0 0 0 0 0 0 0 0 0 0 0 0 0 0 0 0 0 0 0 0 0 0 0 0 0 0 0 0 0 0 0 0 0 0 0 0
0 0 0 0 0 0 0 0 0 0 0 0 0 0 0 0 0 0 0 0 0 0 0 0 0 0 0 0 0 0 0 0 0 0 0 0 0 0 0 0 0 0 0 0
0 0 0 0 0 0 0 0 0 0 0 0 0 0 0 0 0 0 0 0 0 0 0 0 0 0 0 0 0 0 0 0 0 0 0 0 0 0 0 0 0 0 0 0
0 0 0 0 0 0 0 0 0 0 0 0 0 0 0 0 0 0 0 0 0 0 0 0 0 0 0 0 0 -1 0 0 0 0 0 0 0 0 -2 0 0 0 0 0
0 0 0 0 0 0 0 0 0 0 0 0 0 0 0 0 0 0 0 0 0 0 0 0 0 0 0 -1 0 0 0 0 0 0 0 0 -2 -2 -1 0 0 0 0 0
0 0 0 0 0 0 0 0 0 0 0 0 0 0 0 0 0 0 0 0 0 0 0 0 0 0 0 0 0 -3 -4 0 0 0 -1 -2 -3 0 0 0 -5 0 0 0
0 0 0 0 0 0 0 0 0 0 0 0 0 0 0 0 0 0 0 0 0 0 0 0 0 0 0 0 0 0 0 0 0 0 -2 -4 -1 0 0 0 0 -6 -4 -5
0 -1 0 0 0 0 0 0 0 0 0 0 0 0 0 0 0 0 0 0 0 0 0 0 0 0 0 0 0 0 0 -1 0 -1 -2 -4 0 0 0 0 0 0 -3 -4
0 -3 0 0 0 0 0 0 0 0 0 0 0 0 0 0 0 0 0 0 0 0 -1 0 0 0 0 0 0 0 0 0 0 0 -3 0 0 0 0 0 0 -5 -4 -4
0 0 0 0 0 -2 0 0 0 0 0 0 0 0 0 0 0 0 0 0 0 0 0 0 0 0 0 0 0 0 0 0 0 -2 0 0 0 0 -1 -1 -2 -3 -4 -4
-1 -1 -1 0 -1 0 0 0 0 0 0 0 0 0 0 0 0 0 -1 0 0 0 0 0 0 0 0 0 0 0 0 0 0 -1 -1 -1 -3 -2 -3 -3 -3 -2 -3 -4
-1 -1 -1 -2 -1 -1 0 -1 0 0 0 0 0 0 0 -2 0 -2 -1 0 -5 -7 0 0 0 0 0 0 0 0 0 -1 -2 -2 -4 0 -2 -4 -3 0 0 -1 -1 -1
Wind_Speed
29 23 23 25 26 26 28 26 28 26 27 22 15 15 18 16 13 12 13 13 13 14 14 14 13 13 12 14 15 17 17 17 18 16 17 17 17 19 21 22 23 24 25 26
33 28 21 25 25 27 27 27 28 27 28 23 25 25 18 16 17 16 15 15 15 15 16 15 15 14 14 16 16 16 17 17 16 16 17 18 17 19 21 23 24 26 28 29
33 28 21 30 27 20 23 28 30 34 30 28 28 29 30 28 19 17 16 19 17 15 17 16 13 13 13 15 15 17 17 17 16 16 17 17 18 20 23 24 25 27 28 27
26 22 32 23 20 25 28 29 27 31 31 31 32 30 29 25 19 18 20 20 22 19 17 13 12 12 13 14 17 17 18 17 16 17 17 18 20 22 23 25 26 27 27 25
31 33 31 33 25 23 25 31 32 36 39 40 37 31 33 23 23 23 18 19 16 12 10 11 12 13 14 16 18 20 17 16 18 18 19 20 21 21 23 24 25 25 24 23
23 31 35 28 27 30 28 37 30 32 34 32 26 32 33 23 19 18 16 15 13 11 11 12 12 12 14 18 19 14 17 19 19 19 19 20 21 22 23 23 23 22 22 22
34 35 32 33 30 24 32 33 26 25 26 26 28 24 21 19 20 18 15 14 11 11 12 11 12 16 16 13 18 16 15 17 19 20 20 20 21 22 22 21 21 21 21 20
31 32 43 27 24 32 25 21 20 19 19 20 19 18 18 18 18 17 16 14 13 12 12 13 14 14 15 13 12 13 16 18 19 19 20 21 22 21 20 20 20 20 20 20
35 40 29 25 26 22 20 21 19 19 22 21 18 17 18 17 18 16 14 13 12 12 13 11 11 11 13 12 12 14 16 17 18 19 19 20 22 21 20 19 19 18 18 18
32 34 30 33 24 18 17 18 18 18 20 21 16 15 17 15 16 14 12 12 12 12 13 14 11 12 13 11 12 14 17 18 19 20 20 20 20 20 19 19 18 17 17 16
33 28 23 23 18 15 16 16 16 15 15 15 14 15 13 14 13 13 14 14 13 16 16 15 12 13 12 12 12 16 18 18 18 19 19 20 22 22 19 20 17 16 15 14
35 28 24 24 16 14 16 15 14 14 14 13 12 12 12 13 13 14 16 17 18 18 17 16 13 13 11 12 13 16 18 18 19 20 20 20 19 21 20 18 17 16 14 13
25 22 18 16 11 13 14 15 14 13 13 14 14 14 14 16 17 17 18 17 17 19 20 18 18 14 13 12 13 15 16 17 19 20 18 17 16 16 18 18 16 15 14 12
18 15 19 14 14 14 15 13 12 12 12 14 15 15 17 18 19 18 19 19 19 18 18 19 19 18 14 11 13 14 18 19 19 19 17 16 14 12 12 12 13 14 12 11
14 13 13 12 13 14 13 12 11 13 14 16 18 20 21 21 20 20 21 21 19 19 16 16 17 15 12 12 12 14 16 16 16 16 15 13 10 9 10 12 11 10 10 10
16 15 13 14 15 13 13 14 16 17 19 22 21 20 19 19 19 20 19 21 18 17 14 13 14 14 10 10 9 8 9 7 7 6 5 5 6 9 10 10 8 8 8 8
16 17 16 17 16 14 15 16 16 18 20 19 17 16 16 17 17 19 19 19 16 14 12 13 13 11 8 8 8 7 7 6 6 6 6 5 6 7 7 6 6 7 7 8
15 15 16 15 15 15 16 17 16 15 14 13 13 14 15 17 17 17 16 14 13 14 14 11 10 8 7 7 7 8 7 7 7 6 6 6 6 6 6 6 6 7 8 8
12 14 15 15 16 17 18 16 14 11 9 10 12 14 13 13 15 14 12 14 12 10 10 9 8 8 7 7 8 8 7 7 6 6 6 6 6 6 6 6 6 7 7 8
13 14 15 15 16 17 15 13 10 9 9 9 8 10 12 12 11 11 12 12 11 9 7 7 7 8 8 7 9 10 7 7 7 6 6 5 5 6 6 6 6 6 7 8
12 12 13 13 13 13 12 12 11 9 8 6 7 8 8 8 10 9 9 10 11 9 8 7 8 8 8 7 9 9 7 6 6 5 5 5 5 5 6 6 6 6 6 7
10 11 11 11 10 11 11 9 7 6 5 5 6 6 7 10 9 11 12 10 8 8 8 8 8 7 8 6 8 7 6 6 6 6 5 5 5 5 5 5 5 5 6 7
8 9 9 9 9 9 8 8 6 4 4 4 4 7 10 8 10 11 12 10 10 8 9 8 7 6 6 6 7 7 6 6 6 6 4 5 7 7 6 6 5 5 5 6
7 7 7 7 6 6 7 5 5 5 6 7 7 8 9 10 13 15 13 10 10 9 9 7 6 5 5 6 7 6 6 5 5 6 6 5 8 8 7 6 5 4 5 5
4 4 4 4 5 6 5 5 6 8 9 9 9 10 13 13 14 13 12 12 9 8 8 7 6 5 5 6 6 5 5 5 6 5 5 5 6 7 8 7 5 4 4 4
3 5 5 6 7 6 6 6 9 9 10 11 12 12 14 14 12 13 12 11 10 10 9 8 6 4 5 6 5 5 5 5 4 5 5 5 7 7 8 7 5 3 3 4
7 6 7 9 9 8 9 9 9 10 10 9 11 11 11 12 12 11 10 11 11 11 9 8 6 5 6 6 5 5 5 5 4 5 4 5 6 6 7 7 6 4 4 4
Wind_Direction
252 262 238 243 243 238 236 245 250 267 270 276 287 288 295 295 279 261 252 245 248 262 269 270 278 282 289 307 307 313 312 314 316 317 321 324 324 320 319 320 321 323 323 323
252 251 256 244 248 242 244 250 257 264 267 279 285 291 294 291 289 286 281 253 255 260 269 271 277 275 292 303 311 313 311 314 322 323 321 322 322 319 319 321 323 322 323 324
253 243 255 257 253 247 249 258 265 268 275 282 284 287 291 297 300 280 281 282 267 266 278 274 283 294 303 311 317 315 313 317 320 322 323 324 323 321 320 322 324 323 324 326
248 245 250 257 264 269 268 270 268 273 280 284 286 291 295 304 310 291 292 279 284 279 280 286 295 306 309 314 316 316 317 318 322 323 324 325 323 321 322 323 323 324 327 329
246 248 266 262 269 271 267 269 272 276 279 281 288 297 292 298 295 299 301 298 291 292 289 298 302 309 310 311 310 312 313 312 317 320 320 320 321 322 324 324 327 330 333 332
258 253 255 264 269 270 286 270 276 279 282 290 299 290 295 312 312 313 310 305 295 293 294 297 302 310 309 307 308 309 310 309 315 320 324 323 324 324 325 327 330 334 335 335
250 259 266 266 276 276 265 282 286 287 290 296 295 299 310 319 316 311 307 302 300 296 294 292 299 303 304 302 300 307 315 319 321 322 324 326 325 325 326 330 333 335 334 337
250 254 266 272 276 267 274 288 295 303 308 306 311 313 313 316 316 311 307 306 305 302 301 304 304 302 298 299 306 312 316 319 322 325 326 327 327 329 331 332 333 332 334 336
251 262 277 291 272 275 285 290 295 300 307 312 307 308 313 311 313 312 311 310 311 309 310 310 308 306 298 300 308 314 318 322 325 327 329 329 326 328 331 331 331 332 334 336
263 266 274 271 280 285 284 285 295 304 308 309 304 307 310 312 313 312 313 311 310 309 308 305 304 304 304 307 309 313 314 317 321 324 326 329 331 330 327 327 328 332 334 336
264 276 263 278 280 278 287 293 303 309 311 311 308 308 309 312 314 312 311 312 310 308 306 304 305 303 310 311 314 309 312 314 319 324 327 328 330 328 326 327 330 331 334 341
266 269 269 270 276 279 285 289 297 303 307 311 313 310 310 311 312 312 310 310 309 311 313 311 305 308 314 318 316 311 312 314 317 321 323 324 329 329 327 327 334 337 342 349
265 275 270 280 271 280 282 288 294 296 299 305 313 314 312 313 317 318 319 311 310 315 318 316 318 309 310 318 315 310 310 313 314 313 317 321 324 326 318 324 334 334 346 3
271 272 273 276 275 284 285 288 294 296 302 306 309 311 312 312 313 313 312 312 315 315 311 312 311 312 313 320 320 316 315 313 314 313 315 315 319 323 326 329 326 335 352 13
277 277 279 282 280 281 282 290 289 291 298 302 306 306 307 308 310 310 312 313 314 316 320 321 320 322 326 325 326 324 325 324 324 320 318 317 323 330 330 326 340 1 13 23
270 278 278 272 276 280 286 290 291 293 298 301 305 308 312 312 314 316 319 319 318 319 322 326 330 331 341 346 352 0 356 3 8 18 24 17 350 326 324 332 1 17 35 48
266 268 269 272 279 285 287 294 298 296 300 305 310 314 317 320 324 324 324 327 328 328 331 327 335 348 358 14 19 31 37 53 80 80 87 24 347 348 352 14 28 31 47 59
277 277 280 281 287 289 292 297 301 306 310 318 323 325 325 322 321 325 329 334 333 326 332 342 355 11 16 38 36 33 47 84 91 77 44 23 2 12 34 49 45 48 57 65
282 283 286 289 292 292 296 299 304 313 320 322 325 327 331 331 331 336 346 328 332 336 348 11 30 33 34 22 21 27 37 49 52 43 17 18 32 45 62 58 42 39 56 61
286 289 293 296 298 299 294 308 313 314 319 326 336 337 337 344 354 342 334 338 352 4 36 28 32 24 25 33 11 360 21 51 74 40 40 26 42 61 66 59 53 48 53 60
288 293 297 300 303 302 301 297 300 305 318 335 337 343 355 3 334 344 351 354 354 19 24 35 19 18 17 14 1 2 2 12 18 34 47 28 11 29 45 44 32 45 53 59
294 295 297 300 301 302 302 302 303 309 321 332 346 1 340 324 333 333 338 352 8 12 10 12 13 16 12 17 1 10 12 9 5 355 350 355 358 350 9 18 21 24 39 60
297 299 302 300 299 304 314 316 315 313 314 327 332 320 309 323 327 331 334 352 359 351 351 1 18 34 41 19 15 12 6 358 354 354 10 345 322 326 337 342 352 20 39 46
296 303 307 317 328 326 311 327 328 323 312 306 314 320 321 318 322 326 338 347 351 353 358 17 28 43 39 12 23 25 16 15 0 346 344 342 319 316 321 325 343 10 22 36
304 311 323 334 331 328 337 332 312 296 302 310 313 312 316 323 324 329 339 342 348 356 357 3 18 39 13 1 12 28 22 3 352 350 351 342 326 317 311 316 330 357 18 35
296 298 301 305 310 314 314 308 303 303 306 309 312 315 317 322 330 330 332 337 336 333 338 339 350 19 4 2 12 24 21 16 6 354 360 345 326 314 308 311 323 351 5 22
285 292 290 291 297 307 303 305 309 313 317 325 327 333 332 329 331 336 339 333 327 324 326 331 332 339 337 342 353 0 6 9 4 354 2 340 327 322 310 307 313 329 342 359